Time,TemperatureF,DewpointF,PressureIn,WindDirection,WindDirectionDegrees,WindSpeedMPH,WindSpeedGustMPH,Humidity,HourlyPrecipIn,Conditions,Clouds,dailyrainin,SoftwareType,DateUTC
2013-01-09 00:03:00,31.0,29.0,29.88,WSW,247,0.0,0.0,91,0.00,,,-99.99,,2013-01-09 05:03:00,
2013-01-09 00:12:00,31.0,29.0,29.88,WSW,247,0.0,0.0,91,0.00,,,-99.99,,2013-01-09 05:12:00,
2013-01-09 00:22:00,31.0,29.0,29.88,WSW,249,0.0,1.0,93,0.00,,,-99.99,,2013-01-09 05:22:00,
2013-01-09 00:33:00,31.0,29.0,29.88,SW,228,0.0,0.0,92,0.00,,,-99.99,,2013-01-09 05:33:00,
2013-01-09 00:42:00,31.0,29.0,29.88,SW,228,0.0,0.0,92,0.00,,,-99.99,,2013-01-09 05:42:00,
2013-01-09 00:53:00,30.0,28.0,29.88,WSW,247,0.0,0.0,94,0.00,,,-99.99,,2013-01-09 05:53:00,
2013-01-09 01:02:00,30.0,29.0,29.88,WSW,247,0.0,0.0,95,0.00,,,-99.99,,2013-01-09 06:02:00,
2013-01-09 01:12:00,30.0,29.0,29.88,WSW,247,0.0,0.0,95,0.00,,,-99.99,,2013-01-09 06:12:00,
2013-01-09 01:22:00,29.0,28.0,29.88,WSW,247,0.0,0.0,95,0.00,,,-99.99,,2013-01-09 06:22:00,
2013-01-09 01:32:00,29.0,28.0,29.88,WSW,247,0.0,0.0,96,0.00,,,-99.99,,2013-01-09 06:32:00,
2013-01-09 01:42:00,29.0,28.0,29.88,WSW,247,0.0,0.0,96,0.00,,,-99.99,,2013-01-09 06:42:00,
2013-01-09 01:52:00,29.0,28.0,29.86,WSW,247,0.0,0.0,97,0.00,,,-99.99,,2013-01-09 06:52:00,
2013-01-09 02:02:00,28.0,27.0,29.85,SW,231,0.0,0.0,96,0.00,,,-99.99,,2013-01-09 07:02:00,
2013-01-09 02:12:00,28.0,27.0,29.85,SW,231,0.0,0.0,96,0.00,,,-99.99,,2013-01-09 07:12:00,
2013-01-09 02:22:00,28.0,28.0,29.85,WSW,247,0.0,0.0,98,0.00,,,-99.99,,2013-01-09 07:22:00,
2013-01-09 02:32:00,29.0,29.0,29.85,WSW,247,0.0,0.0,99,0.00,,,-99.99,,2013-01-09 07:32:00,
2013-01-09 02:42:00,29.0,29.0,29.85,WSW,247,0.0,0.0,99,0.00,,,-99.99,,2013-01-09 07:42:00,
2013-01-09 02:52:00,28.0,27.0,29.88,WSW,247,0.0,0.0,97,0.00,,,-99.99,,2013-01-09 07:52:00,
2013-01-09 03:02:00,27.0,27.0,29.87,WSW,247,0.0,0.0,99,0.00,,,-99.99,,2013-01-09 08:02:00,
2013-01-09 03:12:00,27.0,27.0,29.87,WSW,247,0.0,0.0,99,0.00,,,-99.99,,2013-01-09 08:12:00,
2013-01-09 03:22:00,27.0,27.0,29.86,SW,233,0.0,0.0,99,0.00,,,-99.99,,2013-01-09 08:22:00,
2013-01-09 03:32:00,27.0,27.0,29.85,WSW,247,0.0,0.0,99,0.00,,,-99.99,,2013-01-09 08:32:00,
2013-01-09 03:42:00,27.0,27.0,29.85,WSW,247,0.0,0.0,99,0.00,,,-99.99,,2013-01-09 08:42:00,
2013-01-09 03:53:00,28.0,28.0,29.85,WSW,250,0.0,0.0,99,0.00,,,-99.99,,2013-01-09 08:53:00,
2013-01-09 04:02:00,29.0,29.0,29.85,SW,227,0.0,0.0,99,0.00,,,-99.99,,2013-01-09 09:02:00,
2013-01-09 04:12:00,29.0,29.0,29.85,SW,227,0.0,0.0,99,0.00,,,-99.99,,2013-01-09 09:12:00,
2013-01-09 04:22:00,29.0,29.0,29.85,WSW,247,0.0,0.0,99,0.00,,,-99.99,,2013-01-09 09:22:00,
2013-01-09 04:32:00,30.0,30.0,29.85,SW,235,0.0,0.0,99,0.00,,,-99.99,,2013-01-09 09:32:00,
2013-01-09 04:42:00,30.0,30.0,29.85,SW,235,0.0,0.0,99,0.00,,,-99.99,,2013-01-09 09:42:00,
2013-01-09 04:53:00,30.0,30.0,29.85,WSW,244,0.0,0.0,99,0.00,,,-99.99,,2013-01-09 09:53:00,
2013-01-09 05:02:00,31.0,31.0,29.85,WSW,247,0.0,0.0,98,0.00,,,-99.99,,2013-01-09 10:02:00,
2013-01-09 05:12:00,31.0,31.0,29.85,WSW,247,0.0,0.0,98,0.00,,,-99.99,,2013-01-09 10:12:00,
2013-01-09 05:22:00,32.0,31.0,29.85,WSW,247,0.0,0.0,97,0.00,,,-99.99,,2013-01-09 10:22:00,
2013-01-09 05:32:00,31.0,30.0,29.85,WSW,250,0.0,0.0,97,0.00,,,-99.99,,2013-01-09 10:32:00,
2013-01-09 05:42:00,31.0,30.0,29.85,WSW,250,0.0,0.0,97,0.00,,,-99.99,,2013-01-09 10:42:00,
2013-01-09 05:52:00,30.0,29.0,29.85,WSW,247,0.0,0.0,97,0.00,,,-99.99,,2013-01-09 10:52:00,
2013-01-09 06:02:00,29.0,28.0,29.85,SW,235,0.0,0.0,97,0.00,,,-99.99,,2013-01-09 11:02:00,
2013-01-09 06:12:00,29.0,28.0,29.85,SW,235,0.0,0.0,97,0.00,,,-99.99,,2013-01-09 11:12:00,
2013-01-09 06:22:00,29.0,29.0,29.85,SW,236,0.0,1.0,98,0.00,,,-99.99,,2013-01-09 11:22:00,
2013-01-09 06:32:00,28.0,28.0,29.85,WSW,238,0.0,0.0,99,0.00,,,-99.99,,2013-01-09 11:32:00,
2013-01-09 06:42:00,28.0,28.0,29.85,WSW,238,0.0,0.0,99,0.00,,,-99.99,,2013-01-09 11:42:00,
2013-01-09 06:53:00,28.0,28.0,29.85,SW,234,0.0,0.0,99,0.00,,,-99.99,,2013-01-09 11:53:00,
2013-01-09 07:03:00,28.0,28.0,29.85,SW,234,0.0,0.0,99,0.00,,,-99.99,,2013-01-09 12:03:00,
2013-01-09 07:12:00,28.0,28.0,29.85,SW,234,0.0,0.0,99,0.00,,,-99.99,,2013-01-09 12:12:00,
2013-01-09 07:23:00,28.0,28.0,29.85,WSW,241,0.0,0.0,99,0.00,,,-99.99,,2013-01-09 12:23:00,
2013-01-09 07:33:00,28.0,28.0,29.85,WSW,245,0.0,0.0,99,0.00,,,-99.99,,2013-01-09 12:33:00,
2013-01-09 07:43:00,28.0,28.0,29.85,WSW,245,0.0,0.0,99,0.00,,,-99.99,,2013-01-09 12:43:00,
2013-01-09 07:53:00,28.0,28.0,29.86,SW,236,0.0,0.0,99,0.00,,,-99.99,,2013-01-09 12:53:00,
2013-01-09 08:03:00,28.0,28.0,29.86,SW,236,0.0,0.0,99,0.00,,,-99.99,,2013-01-09 13:03:00,
2013-01-09 08:12:00,28.0,28.0,29.86,SW,236,0.0,0.0,99,0.00,,,-99.99,,2013-01-09 13:12:00,
2013-01-09 08:23:00,30.0,30.0,29.86,SW,231,0.0,0.0,99,0.00,,,-99.99,,2013-01-09 13:23:00,
2013-01-09 08:33:00,32.0,32.0,29.85,WSW,247,0.0,0.0,99,0.00,,,-99.99,,2013-01-09 13:33:00,
2013-01-09 08:43:00,32.0,32.0,29.85,WSW,247,0.0,0.0,99,0.00,,,-99.99,,2013-01-09 13:43:00,
2013-01-09 08:53:00,34.0,33.0,29.85,WSW,247,0.0,0.0,96,0.00,,,-99.99,,2013-01-09 13:53:00,
2013-01-09 09:03:00,36.0,34.0,29.88,West,260,0.0,1.0,91,0.00,,,-99.99,,2013-01-09 14:03:00,
2013-01-09 09:12:00,39.0,36.0,29.87,SW,229,0.0,0.0,89,0.00,,,-99.99,,2013-01-09 14:12:00,
2013-01-09 09:23:00,39.0,36.0,29.87,SW,229,0.0,0.0,89,0.00,,,-99.99,,2013-01-09 14:23:00,
2013-01-09 09:33:00,46.0,41.0,29.85,SW,226,0.0,0.0,81,0.00,,,-99.99,,2013-01-09 14:33:00,
2013-01-09 09:43:00,46.0,41.0,29.85,SW,226,0.0,0.0,81,0.00,,,-99.99,,2013-01-09 14:43:00,
2013-01-09 09:53:00,53.0,39.0,29.88,WSW,238,0.0,1.0,60,0.00,,,-99.99,,2013-01-09 14:53:00,
2013-01-09 10:03:00,53.0,38.0,29.88,WSW,250,1.0,3.0,57,0.00,,,-99.99,,2013-01-09 15:03:00,
2013-01-09 10:12:00,53.0,38.0,29.88,WSW,250,1.0,3.0,57,0.00,,,-99.99,,2013-01-09 15:12:00,
2013-01-09 10:23:00,52.0,38.0,29.85,SW,236,1.0,3.0,58,0.00,,,-99.99,,2013-01-09 15:23:00,
2013-01-09 10:33:00,55.0,38.0,29.85,SSW,210,1.0,2.0,53,0.00,,,-99.99,,2013-01-09 15:33:00,
2013-01-09 10:42:00,55.0,38.0,29.85,SSW,210,1.0,2.0,53,0.00,,,-99.99,,2013-01-09 15:42:00,
2013-01-09 10:53:00,55.0,37.0,29.85,SW,218,0.0,3.0,50,0.00,,,-99.99,,2013-01-09 15:53:00,
2013-01-09 11:03:00,54.0,35.0,29.83,SSW,203,2.0,4.0,49,0.00,,,-99.99,,2013-01-09 16:03:00,
2013-01-09 11:12:00,54.0,35.0,29.83,SSW,203,2.0,4.0,49,0.00,,,-99.99,,2013-01-09 16:12:00,
2013-01-09 11:23:00,54.0,36.0,29.83,SSW,211,1.0,4.0,50,0.00,,,-99.99,,2013-01-09 16:23:00,
2013-01-09 11:33:00,53.0,35.0,29.83,SSW,202,3.0,5.0,51,0.00,,,-99.99,,2013-01-09 16:33:00,
2013-01-09 11:43:00,53.0,35.0,29.83,SSW,202,3.0,5.0,51,0.00,,,-99.99,,2013-01-09 16:43:00,
2013-01-09 11:53:00,51.0,35.0,29.80,SW,232,2.0,4.0,54,0.00,,,-99.99,,2013-01-09 16:53:00,
2013-01-09 12:03:00,49.0,35.0,29.80,SW,230,2.0,6.0,59,0.00,,,-99.99,,2013-01-09 17:03:00,
2013-01-09 12:12:00,49.0,35.0,29.80,SW,230,2.0,6.0,59,0.00,,,-99.99,,2013-01-09 17:12:00,
2013-01-09 12:23:00,49.0,36.0,29.80,WSW,247,1.0,4.0,61,0.00,,,-99.99,,2013-01-09 17:23:00,
2013-01-09 12:33:00,48.0,36.0,29.80,SW,231,3.0,5.0,62,0.00,,,-99.99,,2013-01-09 17:33:00,
2013-01-09 12:43:00,48.0,36.0,29.80,SW,231,3.0,5.0,62,0.00,,,-99.99,,2013-01-09 17:43:00,
2013-01-09 12:53:00,47.0,35.0,29.80,WSW,242,2.0,4.0,63,0.00,,,-99.99,,2013-01-09 17:53:00,
2013-01-09 13:03:00,47.0,35.0,29.77,WSW,244,2.0,5.0,62,0.00,,,-99.99,,2013-01-09 18:03:00,
2013-01-09 13:12:00,47.0,35.0,29.77,WSW,244,2.0,5.0,62,0.00,,,-99.99,,2013-01-09 18:12:00,
2013-01-09 13:24:00,46.0,35.0,29.77,West,265,2.0,4.0,66,0.00,,,-99.99,,2013-01-09 18:24:00,
2013-01-09 13:33:00,46.0,35.0,29.77,WSW,242,2.0,4.0,64,0.00,,,-99.99,,2013-01-09 18:33:00,
2013-01-09 13:43:00,46.0,35.0,29.77,WSW,242,2.0,4.0,64,0.00,,,-99.99,,2013-01-09 18:43:00,
2013-01-09 13:53:00,46.0,34.0,29.77,WSW,248,2.0,5.0,63,0.00,,,-99.99,,2013-01-09 18:53:00,
2013-01-09 14:03:00,46.0,35.0,29.79,WSW,257,1.0,3.0,66,0.00,,,-99.99,,2013-01-09 19:03:00,
2013-01-09 14:13:00,46.0,35.0,29.79,WSW,257,1.0,3.0,66,0.00,,,-99.99,,2013-01-09 19:13:00,
2013-01-09 14:23:00,46.0,36.0,29.80,WSW,252,1.0,5.0,69,0.00,,,-99.99,,2013-01-09 19:23:00,
2013-01-09 14:33:00,46.0,37.0,29.79,WSW,255,2.0,5.0,70,0.00,,,-99.99,,2013-01-09 19:33:00,
2013-01-09 14:43:00,46.0,37.0,29.79,WSW,255,2.0,5.0,70,0.00,,,-99.99,,2013-01-09 19:43:00,
2013-01-09 14:53:00,45.0,36.0,29.77,WSW,251,2.0,3.0,70,0.00,,,-99.99,,2013-01-09 19:53:00,
2013-01-09 15:03:00,45.0,36.0,29.74,SW,232,1.0,5.0,71,0.00,,,-99.99,,2013-01-09 20:03:00,
2013-01-09 15:12:00,45.0,36.0,29.74,SW,232,1.0,5.0,71,0.00,,,-99.99,,2013-01-09 20:12:00,
2013-01-09 15:23:00,45.0,36.0,29.74,SW,235,2.0,4.0,71,0.00,,,-99.99,,2013-01-09 20:23:00,
2013-01-09 15:33:00,45.0,37.0,29.71,SW,229,2.0,6.0,72,0.00,,,-99.99,,2013-01-09 20:33:00,
2013-01-09 15:43:00,45.0,37.0,29.71,SW,229,2.0,6.0,72,0.00,,,-99.99,,2013-01-09 20:43:00,
2013-01-09 15:53:00,44.0,37.0,29.71,SW,235,2.0,4.0,76,0.00,,,-99.99,,2013-01-09 20:53:00,
2013-01-09 16:03:00,44.0,38.0,29.71,SW,222,2.0,5.0,78,0.00,,,-99.99,,2013-01-09 21:03:00,
2013-01-09 16:13:00,44.0,38.0,29.71,SW,222,2.0,5.0,78,0.00,,,-99.99,,2013-01-09 21:13:00,
2013-01-09 16:23:00,44.0,38.0,29.71,SW,235,2.0,4.0,79,0.00,,,-99.99,,2013-01-09 21:23:00,
2013-01-09 16:33:00,44.0,38.0,29.71,SW,231,1.0,2.0,79,0.00,,,-99.99,,2013-01-09 21:33:00,
2013-01-09 16:43:00,44.0,38.0,29.71,SW,231,1.0,2.0,79,0.00,,,-99.99,,2013-01-09 21:43:00,
2013-01-09 16:53:00,45.0,39.0,29.71,WSW,243,1.0,3.0,79,0.00,,,-99.99,,2013-01-09 21:53:00,
2013-01-09 17:03:00,45.0,39.0,29.71,WSW,247,2.0,3.0,79,0.00,,,-99.99,,2013-01-09 22:03:00,
2013-01-09 17:12:00,45.0,39.0,29.71,WSW,247,2.0,3.0,79,0.00,,,-99.99,,2013-01-09 22:12:00,
2013-01-09 17:23:00,46.0,40.0,29.71,WSW,255,1.0,4.0,79,0.00,,,-99.99,,2013-01-09 22:23:00,
2013-01-09 17:33:00,46.0,40.0,29.73,WSW,241,2.0,4.0,79,0.00,,,-99.99,,2013-01-09 22:33:00,
2013-01-09 17:43:00,46.0,40.0,29.73,WSW,241,2.0,4.0,79,0.00,,,-99.99,,2013-01-09 22:43:00,
2013-01-09 17:52:00,46.0,40.0,29.74,WSW,258,1.0,3.0,78,0.00,,,-99.99,,2013-01-09 22:52:00,
2013-01-09 18:03:00,46.0,39.0,29.74,West,261,0.0,3.0,77,0.00,,,-99.99,,2013-01-09 23:03:00,
2013-01-09 18:13:00,46.0,39.0,29.74,WSW,257,1.0,3.0,76,0.00,,,-99.99,,2013-01-09 23:13:00,
2013-01-09 18:22:00,46.0,39.0,29.74,WSW,257,1.0,3.0,76,0.00,,,-99.99,,2013-01-09 23:22:00,
2013-01-09 18:33:00,46.0,37.0,29.74,West,272,3.0,6.0,70,0.00,,,-99.99,,2013-01-09 23:33:00,
2013-01-09 18:43:00,46.0,37.0,29.74,West,272,3.0,6.0,70,0.00,,,-99.99,,2013-01-09 23:43:00,
2013-01-09 18:53:00,46.0,36.0,29.74,West,272,3.0,7.0,68,0.00,,,-99.99,,2013-01-09 23:53:00,
2013-01-09 19:03:00,46.0,36.0,29.74,West,259,2.0,6.0,69,0.00,,,-99.99,,2013-01-10 00:03:00,
2013-01-09 19:12:00,46.0,36.0,29.74,West,259,2.0,6.0,69,0.00,,,-99.99,,2013-01-10 00:12:00,
2013-01-09 19:22:00,46.0,37.0,29.74,West,271,3.0,6.0,70,0.00,,,-99.99,,2013-01-10 00:22:00,
2013-01-09 19:32:00,46.0,36.0,29.74,WNW,285,3.0,12.0,69,0.00,,,-99.99,,2013-01-10 00:32:00,
2013-01-09 19:42:00,46.0,36.0,29.74,WNW,285,3.0,12.0,69,0.00,,,-99.99,,2013-01-10 00:42:00,
2013-01-09 19:53:00,46.0,36.0,29.74,West,280,4.0,9.0,69,0.00,,,-99.99,,2013-01-10 00:53:00,
2013-01-09 20:02:00,46.0,36.0,29.74,West,275,4.0,8.0,69,0.00,,,-99.99,,2013-01-10 01:02:00,
2013-01-09 20:12:00,46.0,36.0,29.74,West,275,4.0,8.0,69,0.00,,,-99.99,,2013-01-10 01:12:00,
2013-01-09 20:22:00,46.0,37.0,29.74,West,277,3.0,8.0,71,0.00,,,-99.99,,2013-01-10 01:22:00,
2013-01-09 20:33:00,46.0,36.0,29.74,West,278,5.0,10.0,69,0.00,,,-99.99,,2013-01-10 01:33:00,
2013-01-09 20:43:00,46.0,36.0,29.74,West,278,5.0,10.0,69,0.00,,,-99.99,,2013-01-10 01:43:00,
2013-01-09 20:53:00,46.0,37.0,29.74,WNW,287,4.0,8.0,70,0.00,,,-99.99,,2013-01-10 01:53:00,
2013-01-09 21:03:00,46.0,36.0,29.74,WNW,282,3.0,8.0,69,0.00,,,-99.99,,2013-01-10 02:03:00,
2013-01-09 21:12:00,46.0,36.0,29.74,WNW,282,3.0,8.0,69,0.00,,,-99.99,,2013-01-10 02:12:00,
2013-01-09 21:22:00,46.0,36.0,29.74,West,280,5.0,10.0,68,0.00,,,-99.99,,2013-01-10 02:22:00,
2013-01-09 21:32:00,46.0,36.0,29.74,West,278,4.0,9.0,69,0.00,,,-99.99,,2013-01-10 02:32:00,
2013-01-09 21:42:00,46.0,36.0,29.74,West,278,4.0,9.0,69,0.00,,,-99.99,,2013-01-10 02:42:00,
2013-01-09 21:53:00,46.0,36.0,29.74,West,278,4.0,9.0,69,0.00,,,-99.99,,2013-01-10 02:53:00,
2013-01-09 22:03:00,45.0,35.0,29.74,WNW,287,4.0,8.0,68,0.00,,,-99.99,,2013-01-10 03:03:00,
2013-01-09 22:12:00,45.0,35.0,29.74,WNW,287,4.0,8.0,68,0.00,,,-99.99,,2013-01-10 03:12:00,
2013-01-09 22:22:00,45.0,35.0,29.74,WNW,285,3.0,8.0,67,0.00,,,-99.99,,2013-01-10 03:22:00,
2013-01-09 22:33:00,45.0,35.0,29.74,West,274,3.0,6.0,67,0.00,,,-99.99,,2013-01-10 03:33:00,
2013-01-09 22:42:00,45.0,35.0,29.74,West,274,3.0,6.0,67,0.00,,,-99.99,,2013-01-10 03:42:00,
2013-01-09 22:53:00,44.0,34.0,29.75,WNW,282,3.0,7.0,67,0.00,,,-99.99,,2013-01-10 03:53:00,
2013-01-09 23:02:00,44.0,34.0,29.77,West,269,3.0,5.0,67,0.00,,,-99.99,,2013-01-10 04:02:00,
2013-01-09 23:12:00,44.0,34.0,29.77,West,269,3.0,5.0,67,0.00,,,-99.99,,2013-01-10 04:12:00,
2013-01-09 23:22:00,44.0,34.0,29.77,West,260,3.0,7.0,67,0.00,,,-99.99,,2013-01-10 04:22:00,
2013-01-09 23:32:00,44.0,34.0,29.77,West,270,3.0,7.0,67,0.00,,,-99.99,,2013-01-10 04:32:00,
2013-01-09 23:42:00,44.0,34.0,29.77,West,270,3.0,7.0,67,0.00,,,-99.99,,2013-01-10 04:42:00,
2013-01-09 23:52:00,44.0,33.0,29.77,West,274,3.0,6.0,66,0.00,,,-99.99,,2013-01-10 04:52:00,